EW3359 Weather Reports


Display with metric or nautical units.
time (UTC)temp
F
wind
direction
speed
MPH
gust
MPH
rain 1hr
in
rain 24hr
in
rain mn
in
humidity
%
barometer
mb
20260901101505 75 176 2.0 8.0 0.00 0.00 0.00 50 1017.6
20260901100002 74 152 0.0 4.0 0.00 0.00 0.00 51 1017.9
20260901094601 72 176 0.0 4.0 0.00 0.00 0.00 54 1018.1
20260901093055 72 166 0.0 3.0 0.00 0.00 0.00 52 1018.3
20260901091601 71 176 0.0 4.0 0.00 0.00 0.00 53 1018.5
20260901090057 70 171 0.0 4.0 0.00 0.00 0.00 57 1018.6
20260901084542 69 170 0.0 3.0 0.00 0.00 0.00 58 1018.8
20260901083039 68 171 0.0 4.0 0.00 0.00 0.00 60 1018.8
20260901081535 67 180 0.0 6.0 0.00 0.00 0.00 64 1018.9
20260901080037 67 145 0.0 3.0 0.00 0.01 0.00 64 1019.0
20260901074526 65 184 0.0 4.0 0.00 0.01 0.00 66 1019.1
20260901073021 64 184 0.0 3.0 0.00 0.01 0.00 70 1019.4
20260901071517 63 234 0.0 2.0 0.00 0.01 0.00 71 1019.5
20260901070015 62 236 0.0 0.0 0.00 0.02 0.00 72 1019.7
20260901064517 61 236 0.0 1.0 0.00 0.02 0.00 74 1019.9
20260901063009 60 241 0.0 1.0 0.00 0.02 0.00 74 1019.9
20260901061600 59 339 0.0 0.0 0.00 0.02 0.00 77 1019.9
20260901060056 58 339 0.0 0.0 0.00 0.02 0.00 80 1019.8
20260901054551 57 339 0.0 0.0 0.00 0.02 0.00 78 1019.8
20260901053057 57 339 0.0 0.0 0.00 0.02 0.00 75 1019.6
20260901051548 57 339 0.0 0.0 0.00 0.02 0.00 75 1019.7
20260901050043 57 339 0.0 0.0 0.00 0.02 0.00 76 1019.8
20260901044540 57 339 0.0 0.0 0.00 0.02 0.00 76 1019.5
20260901043039 57 339 0.0 0.0 0.00 0.02 0.00 75 1019.4
20260901041537 57 339 0.0 0.0 0.00 0.02 0.00 76 1019.2
20260901040039 57 339 0.0 0.0 0.00 0.02 0.00 76 1019.1
20260901034538 58 339 0.0 0.0 0.00 0.02 0.00 74 1019.0
20260901033031 58 339 0.0 0.0 0.00 0.02 0.00 73 1018.9
20260901031535 59 339 0.0 0.0 0.00 0.02 0.00 71 1018.8
20260901030027 59 339 0.0 3.0 0.00 0.06 0.00 71 1018.8
20260901024526 59 339 0.0 0.0 0.00 0.06 0.00 70 1018.8
20260901023026 60 339 0.0 0.0 0.00 0.06 0.00 69 1018.8
20260901021527 60 339 0.0 0.0 0.00 0.06 0.00 71 1018.6
20260901020023 60 339 0.0 0.0 0.00 0.06 0.00 70 1018.6
20260901014522 60 339 0.0 0.0 0.00 0.06 0.00 69 1018.7
20260901013022 60 339 0.0 0.0 0.00 0.06 0.00 70 1018.7
20260901011519 61 339 0.0 0.0 0.00 0.06 0.00 67 1018.7
20260901010033 61 339 0.0 0.0 0.00 0.07 0.00 66 1018.7
20260901004518 61 338 0.0 0.0 0.00 0.07 0.00 66 1018.6
20260901003016 62 338 0.0 0.0 0.00 0.07 0.00 63 1018.6
20260901001515 62 338 0.0 0.0 0.00 0.07 0.00 64 1018.4
20260901000010 63 332 0.0 3.0 0.00 0.08 0.00 62 1018.5
20260831234508 63 331 0.0 0.0 0.00 0.08 0.00 63 1018.3
20260831233006 63 331 0.0 0.0 0.00 0.08 0.00 63 1018.2
20260831231504 64 331 0.0 0.0 0.00 0.08 0.00 63 1018.1
20260831230004 64 331 0.0 0.0 0.00 0.08 0.00 62 1018.1
20260831224502 64 328 0.0 0.0 0.00 0.08 0.00 62 1017.9
20260831223002 64 328 0.0 0.0 0.00 0.08 0.00 61 1017.9
20260831221601 64 327 0.0 0.0 0.00 0.08 0.00 61 1017.8
20260831220057 65 327 0.0 0.0 0.00 0.08 0.08 59 1017.7
20260831214606 66 327 0.0 0.0 0.00 0.08 0.08 60 1017.6
20260831213101 67 336 0.0 3.0 0.00 0.08 0.08 59 1017.6
20260831211554 67 340 0.0 2.0 0.00 0.08 0.08 59 1017.6
20260831210053 67 342 0.0 2.0 0.00 0.08 0.08 59 1017.4
20260831204556 67 342 0.0 2.0 0.00 0.08 0.08 55 1017.3
20260831203058 67 343 0.0 2.0 0.00 0.08 0.08 56 1017.0
20260831201553 68 351 0.0 0.0 0.00 0.08 0.08 53 1016.8
20260831200046 69 355 0.0 3.0 0.00 0.08 0.08 53 1016.5
20260831194547 69 234 0.0 3.0 0.00 0.08 0.08 54 1016.3
20260831193113 68 183 0.0 1.0 0.00 0.08 0.08 55 1016.2
20260831191542 69 183 0.0 2.0 0.00 0.08 0.08 54 1016.0
20260831190047 69 186 0.0 3.0 0.00 0.08 0.08 54 1015.5
20260831184541 71 205 0.0 3.0 0.00 0.08 0.08 51 1015.3
20260831183044 73 203 1.0 5.0 0.00 0.08 0.08 45 1014.7
20260831181550 73 203 0.0 4.0 0.00 0.08 0.08 47 1014.5
20260831180041 75 183 1.0 6.0 0.00 0.08 0.08 42 1014.3
20260831174539 75 263 1.0 9.0 0.00 0.08 0.08 41 1014.0
20260831173038 75 306 1.0 10.0 0.00 0.08 0.08 43 1014.0
20260831171537 76 232 1.0 7.0 0.00 0.08 0.08 45 1013.9
20260831170037 76 220 0.0 5.0 0.00 0.08 0.08 46 1013.9
20260831164557 77 184 1.0 8.0 0.00 0.08 0.08 45 1013.7
20260831163035 78 248 0.0 6.0 0.00 0.08 0.08 43 1013.4
20260831161554 79 208 2.0 10.0 0.00 0.08 0.08 42 1013.3
20260831160037 79 248 0.0 6.0 0.00 0.08 0.08 43 1013.2
20260831154534 80 175 1.0 9.0 0.00 0.08 0.08 41 1013.1
20260831153034 80 199 1.0 10.0 0.00 0.08 0.08 42 1013.0
20260831151533 81 180 2.0 12.0 0.00 0.08 0.08 39 1013.0
20260831150032 81 184 2.0 12.0 0.00 0.08 0.08 39 1013.0
20260831144531 82 180 1.0 12.0 0.00 0.08 0.08 40 1013.0
20260831143030 82 194 1.0 9.0 0.00 0.08 0.08 41 1012.9
20260831141532 82 202 1.0 11.0 0.00 0.08 0.08 41 1012.8
20260831140030 82 196 1.0 9.0 0.00 0.08 0.08 42 1012.8
20260831134531 82 187 2.0 11.0 0.00 0.08 0.08 49 1013.1
20260831133025 81 253 2.0 7.0 0.00 0.08 0.08 51 1013.3
20260831131542 81 190 2.0 10.0 0.00 0.08 0.08 50 1013.4
20260831130037 81 187 1.0 6.0 0.00 0.08 0.08 50 1013.4
20260831124520 79 158 2.0 9.0 0.00 0.08 0.08 56 1013.4
20260831123023 79 212 0.0 5.0 0.00 0.08 0.08 56 1013.6
20260831121521 78 183 0.0 4.0 0.00 0.08 0.08 59 1013.7
20260831120014 77 290 1.0 5.0 0.00 0.08 0.08 61 1013.8
20260831114513 76 194 0.0 4.0 0.00 0.08 0.08 63 1014.0
20260831113012 75 262 0.0 8.0 0.00 0.08 0.08 64 1014.4
20260831111510 75 202 0.0 4.0 0.00 0.08 0.08 64 1014.5
20260831110012 75 183 0.0 4.0 0.00 0.08 0.08 69 1014.7
20260831104518 74 182 1.0 6.0 0.00 0.08 0.08 70 1014.7
20260831103008 73 195 1.0 6.0 0.00 0.08 0.08 72 1014.8